Time,TemperatureF,DewpointF,PressureIn,WindDirection,WindDirectionDegrees,WindSpeedMPH,WindSpeedGustMPH,Humidity,HourlyPrecipIn,Conditions,Clouds,dailyrainin,SolarRadiationWatts/m^2,SoftwareType,DateUTC
2013-02-21 00:22:00,-7.0,-12.0,-100.00,NNE,22,1.0,5.0,77,-99.99,,,0.00,1.000000,,2013-02-21 05:22:00,
2013-02-21 00:34:00,-7.0,-12.0,-100.00,NNE,22,1.0,5.0,77,-99.99,,,0.00,1.000000,,2013-02-21 05:34:00,
2013-02-21 00:44:00,-7.0,-12.0,-100.00,NNE,22,1.0,5.0,77,-99.99,,,0.00,1.000000,,2013-02-21 05:44:00,
2013-02-21 00:53:00,-7.0,-12.0,-100.00,NNE,22,1.0,5.0,77,-99.99,,,0.00,1.000000,,2013-02-21 05:53:00,
2013-02-21 01:11:00,4.0,-1.0,-100.00,NNE,30,4.0,10.0,80,0.00,,,0.00,1.000000,,2013-02-21 06:11:00,
2013-02-21 01:21:00,4.0,-1.0,-100.00,NNE,30,4.0,10.0,80,0.00,,,0.00,1.000000,,2013-02-21 06:21:00,
2013-02-21 01:31:00,4.0,-1.0,-100.00,NNE,30,4.0,10.0,80,0.00,,,0.00,1.000000,,2013-02-21 06:31:00,
2013-02-21 01:41:00,4.0,-1.0,-100.00,NNE,30,4.0,10.0,80,0.00,,,0.00,1.000000,,2013-02-21 06:41:00,
2013-02-21 01:51:00,4.0,-1.0,-100.00,NNE,30,4.0,10.0,80,0.00,,,0.00,1.000000,,2013-02-21 06:51:00,
2013-02-21 02:21:00,6.0,1.0,-100.00,NNE,27,4.0,9.0,80,0.00,,,0.00,1.000000,,2013-02-21 07:21:00,
2013-02-21 02:32:00,6.0,1.0,-100.00,NNE,27,4.0,9.0,80,0.00,,,0.00,1.000000,,2013-02-21 07:32:00,
2013-02-21 02:42:00,6.0,1.0,-100.00,NNE,27,4.0,9.0,80,0.00,,,0.00,1.000000,,2013-02-21 07:42:00,
2013-02-21 02:52:00,6.0,1.0,-100.00,NNE,27,4.0,9.0,80,0.00,,,0.00,1.000000,,2013-02-21 07:52:00,
2013-02-21 03:21:00,7.0,3.0,-100.00,NE,42,4.0,10.0,82,0.00,,,0.00,1.000000,,2013-02-21 08:21:00,
2013-02-21 03:32:00,7.0,3.0,-100.00,NE,42,4.0,10.0,82,0.00,,,0.00,1.000000,,2013-02-21 08:32:00,
2013-02-21 03:42:00,7.0,3.0,-100.00,NE,42,4.0,10.0,82,0.00,,,0.00,1.000000,,2013-02-21 08:42:00,
2013-02-21 03:52:00,7.0,3.0,-100.00,NE,42,4.0,10.0,82,0.00,,,0.00,1.000000,,2013-02-21 08:52:00,
2013-02-21 04:22:00,8.0,4.0,-100.00,NNE,20,2.0,7.0,82,0.00,,,0.00,1.000000,,2013-02-21 09:22:00,
2013-02-21 04:31:00,8.0,4.0,-100.00,NNE,20,2.0,7.0,82,0.00,,,0.00,1.000000,,2013-02-21 09:31:00,
2013-02-21 04:41:00,8.0,4.0,-100.00,NNE,20,2.0,7.0,82,0.00,,,0.00,1.000000,,2013-02-21 09:41:00,
2013-02-21 04:51:00,8.0,4.0,-100.00,NNE,20,2.0,7.0,82,0.00,,,0.00,1.000000,,2013-02-21 09:51:00,
2013-02-21 05:21:00,8.0,4.0,-100.00,WNW,290,2.0,6.0,82,0.00,,,0.00,1.000000,,2013-02-21 10:21:00,
2013-02-21 05:31:00,8.0,4.0,-100.00,WNW,290,2.0,6.0,82,0.00,,,0.00,1.000000,,2013-02-21 10:31:00,
2013-02-21 05:41:00,8.0,4.0,-100.00,WNW,290,2.0,6.0,82,0.00,,,0.00,1.000000,,2013-02-21 10:41:00,
2013-02-21 05:51:00,8.0,4.0,-100.00,WNW,290,2.0,6.0,82,0.00,,,0.00,1.000000,,2013-02-21 10:51:00,
2013-02-21 06:21:00,8.0,4.0,-100.00,NW,309,3.0,6.0,82,0.00,,,0.00,1.000000,,2013-02-21 11:21:00,
2013-02-21 06:31:00,8.0,4.0,-100.00,NW,309,3.0,6.0,82,0.00,,,0.00,1.000000,,2013-02-21 11:31:00,
2013-02-21 06:41:00,8.0,4.0,-100.00,NW,309,3.0,6.0,82,0.00,,,0.00,1.000000,,2013-02-21 11:41:00,
2013-02-21 06:51:00,8.0,4.0,-100.00,NW,309,3.0,6.0,82,0.00,,,0.00,1.000000,,2013-02-21 11:51:00,
2013-02-21 07:21:00,8.0,4.0,-100.00,NNW,329,1.0,5.0,83,0.00,,,0.00,1.000000,,2013-02-21 12:21:00,
2013-02-21 07:32:00,8.0,4.0,-100.00,NNW,329,1.0,5.0,83,0.00,,,0.00,1.000000,,2013-02-21 12:32:00,
2013-02-21 07:42:00,8.0,4.0,-100.00,NNW,329,1.0,5.0,83,0.00,,,0.00,1.000000,,2013-02-21 12:42:00,
2013-02-21 07:52:00,8.0,4.0,-100.00,NNW,329,1.0,5.0,83,0.00,,,0.00,1.000000,,2013-02-21 12:52:00,
2013-02-21 08:22:00,9.0,5.0,-100.00,NNE,31,3.0,5.0,84,0.00,,,0.00,1.000000,,2013-02-21 13:22:00,
2013-02-21 08:32:00,9.0,5.0,-100.00,NNE,31,3.0,5.0,84,0.00,,,0.00,1.000000,,2013-02-21 13:32:00,
2013-02-21 08:41:00,9.0,5.0,-100.00,NNE,31,3.0,5.0,84,0.00,,,0.00,1.000000,,2013-02-21 13:41:00,
2013-02-21 08:51:00,9.0,5.0,-100.00,NNE,31,3.0,5.0,84,0.00,,,0.00,1.000000,,2013-02-21 13:51:00,
2013-02-21 09:21:00,11.0,7.0,-100.00,NE,45,5.0,11.0,84,0.00,,,0.00,24.000000,,2013-02-21 14:21:00,
2013-02-21 09:32:00,11.0,7.0,-100.00,NE,45,5.0,11.0,84,0.00,,,0.00,24.000000,,2013-02-21 14:32:00,
2013-02-21 09:42:00,11.0,7.0,-100.00,NE,45,5.0,11.0,84,0.00,,,0.00,24.000000,,2013-02-21 14:42:00,
2013-02-21 09:52:00,11.0,7.0,-100.00,NE,45,5.0,11.0,84,0.00,,,0.00,24.000000,,2013-02-21 14:52:00,
2013-02-21 10:21:00,13.0,8.0,-100.00,NE,40,4.0,13.0,81,0.00,,,0.00,91.000000,,2013-02-21 15:21:00,
2013-02-21 10:32:00,13.0,8.0,-100.00,NE,40,4.0,13.0,81,0.00,,,0.00,91.000000,,2013-02-21 15:32:00,
2013-02-21 10:42:00,13.0,8.0,-100.00,NE,40,4.0,13.0,81,0.00,,,0.00,91.000000,,2013-02-21 15:42:00,
2013-02-21 10:51:00,13.0,8.0,-100.00,NE,40,4.0,13.0,81,0.00,,,0.00,91.000000,,2013-02-21 15:51:00,
2013-02-21 11:22:00,16.0,11.0,-100.00,ENE,65,4.0,15.0,79,0.00,,,0.00,154.000000,,2013-02-21 16:22:00,
2013-02-21 11:32:00,16.0,11.0,-100.00,ENE,65,4.0,15.0,79,0.00,,,0.00,154.000000,,2013-02-21 16:32:00,
2013-02-21 11:42:00,16.0,11.0,-100.00,ENE,65,4.0,15.0,79,0.00,,,0.00,154.000000,,2013-02-21 16:42:00,
2013-02-21 11:52:00,16.0,11.0,-100.00,ENE,65,4.0,15.0,79,0.00,,,0.00,154.000000,,2013-02-21 16:52:00,
2013-02-21 12:21:00,19.0,12.0,-100.00,ENE,71,3.0,8.0,75,0.00,,,0.00,211.000000,,2013-02-21 17:21:00,
2013-02-21 12:32:00,19.0,12.0,-100.00,ENE,71,3.0,8.0,75,0.00,,,0.00,211.000000,,2013-02-21 17:32:00,
2013-02-21 12:42:00,19.0,12.0,-100.00,ENE,71,3.0,8.0,75,0.00,,,0.00,211.000000,,2013-02-21 17:42:00,
2013-02-21 12:52:00,19.0,12.0,-100.00,ENE,71,3.0,8.0,75,0.00,,,0.00,211.000000,,2013-02-21 17:52:00,
2013-02-21 13:22:00,20.0,13.0,-100.00,ENE,70,5.0,9.0,73,0.00,,,0.00,263.000000,,2013-02-21 18:22:00,
2013-02-21 13:32:00,20.0,13.0,-100.00,ENE,70,5.0,9.0,73,0.00,,,0.00,263.000000,,2013-02-21 18:32:00,
2013-02-21 13:42:00,20.0,13.0,-100.00,ENE,70,5.0,9.0,73,0.00,,,0.00,263.000000,,2013-02-21 18:42:00,
2013-02-21 13:51:00,20.0,13.0,-100.00,ENE,70,5.0,9.0,73,0.00,,,0.00,263.000000,,2013-02-21 18:51:00,
2013-02-21 14:21:00,21.0,13.0,-100.00,NE,43,5.0,10.0,72,0.00,,,-99.99,275.000000,,2013-02-21 19:21:00,
2013-02-21 14:32:00,21.0,13.0,-100.00,NE,43,5.0,10.0,72,0.00,,,-99.99,275.000000,,2013-02-21 19:32:00,
2013-02-21 14:42:00,21.0,13.0,-100.00,NE,43,5.0,10.0,72,0.00,,,-99.99,275.000000,,2013-02-21 19:42:00,
2013-02-21 14:51:00,21.0,13.0,-100.00,NE,43,5.0,10.0,72,0.00,,,-99.99,275.000000,,2013-02-21 19:51:00,
2013-02-21 15:21:00,22.0,14.0,-100.00,NNE,31,4.0,9.0,72,0.00,,,0.00,274.000000,,2013-02-21 20:21:00,
2013-02-21 15:32:00,22.0,14.0,-100.00,NNE,31,4.0,9.0,72,0.00,,,0.00,274.000000,,2013-02-21 20:32:00,
2013-02-21 15:41:00,22.0,14.0,-100.00,NNE,31,4.0,9.0,72,0.00,,,0.00,274.000000,,2013-02-21 20:41:00,
2013-02-21 15:52:00,22.0,14.0,-100.00,NNE,31,4.0,9.0,72,0.00,,,0.00,274.000000,,2013-02-21 20:52:00,
2013-02-21 16:21:00,21.0,15.0,-100.00,ENE,58,5.0,11.0,76,0.00,,,0.00,220.000000,,2013-02-21 21:21:00,
2013-02-21 16:31:00,21.0,15.0,-100.00,ENE,58,5.0,11.0,76,0.00,,,0.00,220.000000,,2013-02-21 21:31:00,
2013-02-21 16:42:00,21.0,15.0,-100.00,ENE,58,5.0,11.0,76,0.00,,,0.00,220.000000,,2013-02-21 21:42:00,
2013-02-21 16:52:00,21.0,15.0,-100.00,ENE,58,5.0,11.0,76,0.00,,,0.00,220.000000,,2013-02-21 21:52:00,
2013-02-21 17:21:00,19.0,14.0,-100.00,NE,52,5.0,11.0,82,0.00,,,0.00,105.000000,,2013-02-21 22:21:00,
2013-02-21 17:32:00,19.0,14.0,-100.00,NE,52,5.0,11.0,82,0.00,,,0.00,105.000000,,2013-02-21 22:32:00,
2013-02-21 17:42:00,19.0,14.0,-100.00,NE,52,5.0,11.0,82,0.00,,,0.00,105.000000,,2013-02-21 22:42:00,
2013-02-21 17:52:00,19.0,14.0,-100.00,NE,52,5.0,11.0,82,0.00,,,0.00,105.000000,,2013-02-21 22:52:00,
2013-02-21 18:21:00,17.0,14.0,-100.00,East,79,5.0,14.0,87,0.00,,,0.00,37.000000,,2013-02-21 23:21:00,
2013-02-21 18:32:00,17.0,14.0,-100.00,East,79,5.0,14.0,87,0.00,,,0.00,37.000000,,2013-02-21 23:32:00,
2013-02-21 18:41:00,17.0,14.0,-100.00,East,79,5.0,14.0,87,0.00,,,0.00,37.000000,,2013-02-21 23:41:00,
2013-02-21 18:52:00,17.0,14.0,-100.00,East,79,5.0,14.0,87,0.00,,,0.00,37.000000,,2013-02-21 23:52:00,
2013-02-21 19:21:00,17.0,14.0,-100.00,ENE,74,5.0,11.0,89,0.00,,,0.00,5.000000,,2013-02-22 00:21:00,
2013-02-21 19:32:00,17.0,14.0,-100.00,ENE,74,5.0,11.0,89,0.00,,,0.00,5.000000,,2013-02-22 00:32:00,
2013-02-21 19:42:00,17.0,14.0,-100.00,ENE,74,5.0,11.0,89,0.00,,,0.00,5.000000,,2013-02-22 00:42:00,
2013-02-21 19:51:00,17.0,14.0,-100.00,ENE,74,5.0,11.0,89,0.00,,,0.00,5.000000,,2013-02-22 00:51:00,
2013-02-21 20:21:00,18.0,16.0,-100.00,ENE,71,4.0,14.0,91,0.00,,,0.00,1.000000,,2013-02-22 01:21:00,
2013-02-21 20:32:00,18.0,16.0,-100.00,ENE,71,4.0,14.0,91,0.00,,,0.00,1.000000,,2013-02-22 01:32:00,
2013-02-21 20:42:00,18.0,16.0,-100.00,ENE,71,4.0,14.0,91,0.00,,,0.00,1.000000,,2013-02-22 01:42:00,
2013-02-21 20:51:00,18.0,16.0,-100.00,ENE,71,4.0,14.0,91,0.00,,,0.00,1.000000,,2013-02-22 01:51:00,
2013-02-21 21:21:00,18.0,16.0,-100.00,East,81,5.0,10.0,91,0.00,,,0.00,1.000000,,2013-02-22 02:21:00,
2013-02-21 21:32:00,18.0,16.0,-100.00,East,81,5.0,10.0,91,0.00,,,0.00,1.000000,,2013-02-22 02:32:00,
2013-02-21 21:42:00,18.0,16.0,-100.00,East,81,5.0,10.0,91,0.00,,,0.00,1.000000,,2013-02-22 02:42:00,
2013-02-21 21:52:00,18.0,16.0,-100.00,East,81,5.0,10.0,91,0.00,,,0.00,1.000000,,2013-02-22 02:52:00,
2013-02-21 22:21:00,19.0,17.0,-100.00,East,81,4.0,10.0,90,0.00,,,0.00,1.000000,,2013-02-22 03:21:00,
2013-02-21 22:32:00,19.0,17.0,-100.00,East,81,4.0,10.0,90,0.00,,,0.00,1.000000,,2013-02-22 03:32:00,
2013-02-21 22:42:00,19.0,17.0,-100.00,East,81,4.0,10.0,90,0.00,,,0.00,1.000000,,2013-02-22 03:42:00,
2013-02-21 22:51:00,19.0,17.0,-100.00,East,81,4.0,10.0,90,0.00,,,0.00,1.000000,,2013-02-22 03:51:00,
2013-02-21 23:11:00,19.0,17.0,-100.00,East,85,3.0,9.0,91,0.00,,,0.00,1.000000,,2013-02-22 04:11:00,
2013-02-21 23:21:00,19.0,17.0,-100.00,East,85,3.0,9.0,91,0.00,,,0.00,1.000000,,2013-02-22 04:21:00,
2013-02-21 23:32:00,19.0,17.0,-100.00,East,85,3.0,9.0,91,0.00,,,0.00,1.000000,,2013-02-22 04:32:00,
2013-02-21 23:42:00,19.0,17.0,-100.00,East,85,3.0,9.0,91,0.00,,,0.00,1.000000,,2013-02-22 04:42:00,
2013-02-21 23:51:00,19.0,17.0,-100.00,East,85,3.0,9.0,91,0.00,,,0.00,1.000000,,2013-02-22 04:51:00,